Mossel Bay, South Africa

8:19 AM SAST on July 29, 2015 (GMT +0200)
Seaside | | Change Station
CLOSE
Current Station
Personal Weather Station
Location: Mossel Bay, WESTERN CAPE
Elevation: 400 ft
Nearby Weather Stations

Elev 400 ft 34.20 °S, 22.10 °E | Updated 27 seconds ago

Mostly Cloudy
Mostly Cloudy
51.4 °F
Feels Like 51.4 °F
N
0.0
Wind Variable Wind from ENE
Gusts 0.0 mph

Today
High -- | Low -- °F
--% Chance of Precip.
Yesterday
High -- | Low -- °F
Precip. -- in
7:27 AM 5:49 PM
Waxing Gibbous, 94% visible
Pressure 29.95 in
Visibility 6.2 miles
Clouds Mostly Cloudy 4000 ft
Dew Point 46 °F
Humidity 80%
Rainfall 0.00 in
Snow Depth Not available.
UV 0.0 out of 12
Pollen Not available.
Air Quality Not available.
Flu Activity Not available.
METAR FAGG 290600Z 31005KT 9999 BKN040 11/07 Q1014

More Conditions Fewer Conditions

Pressure 29.95 in
Visibility 6.2 miles
Clouds Mostly Cloudy 4000 ft
Dew Point 46 °F
Humidity 80%
Rainfall 0.00 in
Snow Depth Not available.
UV 0.0 out of 12
Pollen Not available.
Air Quality Not available.
Flu Activity Not available.
METAR FAGG 290600Z 31005KT 9999 BKN040 11/07 Q1014

More Conditions Fewer Conditions

10-Day Weather Forecast

×

Almanac

Astronomy

Jul. 29, 2015 Rise Set
Actual Time
Civil Twilight
Nautical Twilight
Astronomical Twilight
Moon
Length of Visible Light
Length of Day
Tomorrow will be .
, % of the Moon is Illuminated

Today's Extremes

Country Highs Country Lows

Community

WunderPhotos

Upload Photos

1,842,061 photos uploaded!

WunderBlogs® & News

Nearby

Air Quality

  Air Quality AQ Index Pollutant
Not available.

Snow Depth

Station Depth Elevation

Earthquake Activity

City Distance Mag. Time & Date
Minimum magnitude displayed is 2.5.

Coastal Water Temperatures

Place Temperature

Stations

Nearby Weather Stations

Station Location Temp. Windchill Dew Point Humidity Wind Precip. Elev Updated Type